When you browse on this site, cookies collect data to enhance your experience and personalize the content and advertising you see.
Visit our Privacy Policy to learn more. By continuing to use the site, you agree to this use of cookies and data.
  • In United Kingdom
  • List of Countries
  • For 7 days
  • Water Temperature
  • Weather Map
  • Weather Widgets
  • user-avatar
    Login

    Hourly Weather Piilo

    Today, 26 May, Tuesday

    Time Temperature Precipitation Wind Pressure Humidity
    00:00 +7°C° 0 mm 2 mps 740 mmHg 95%
    01:00 +6°C° 0 mm 2 mps 740 mmHg 96%
    02:00 +6°C° 0 mm 2 mps 740 mmHg 96%
    03:00 +6°C° 0 mm 2 mps 740 mmHg 96%
    04:00 +6°C° 0 mm 2 mps 740 mmHg 97%
    05:00 +6°C° 0 mm 2 mps 740 mmHg 97%
    06:00 +7°C° 0 mm 3 mps 740 mmHg 96%
    07:00 +8°C° 0 mm 3 mps 740 mmHg 94%
    08:00 +9°C° 0 mm 3 mps 740 mmHg 93%
    09:00 +10°C° 0.4 mm 3 mps 740 mmHg 91%
    10:00 +11°C° 0.4 mm 4 mps 740 mmHg 89%
    11:00 +12°C° 0.4 mm 4 mps 740 mmHg 86%
    12:00 +12°C° 0.4 mm 3 mps 740 mmHg 84%
    13:00 +14°C° 0.4 mm 2 mps 740 mmHg 81%
    14:00 +14°C° 0.4 mm 1 mps 740 mmHg 78%
    15:00 +14°C° 0.8 mm 2 mps 740 mmHg 81%
    16:00 +14°C° 0.8 mm 2 mps 739 mmHg 84%
    17:00 +13°C° 0.8 mm 3 mps 739 mmHg 87%
    18:00 +13°C° 0.6 mm 2 mps 740 mmHg 89%
    19:00 +12°C° 0.6 mm 2 mps 740 mmHg 92%
    20:00 +11°C° 0.6 mm 1 mps 740 mmHg 94%
    21:00 +11°C° 0.3 mm 1 mps 740 mmHg 95%
    22:00 +11°C° 0.3 mm 1 mps 740 mmHg 96%
    23:00 +10°C° 0.3 mm 1 mps 741 mmHg 97%

    Tomorrow, 27 May, Wednesday

    Time Temperature Precipitation Wind Pressure Humidity
    00:00 +9°C° 0.1 mm 2 mps 741 mmHg 97%
    01:00 +9°C° 0.1 mm 2 mps 741 mmHg 98%
    02:00 +9°C° 0.1 mm 2 mps 740 mmHg 98%
    03:00 +9°C° 0.5 mm 2 mps 740 mmHg 98%
    04:00 +9°C° 0.5 mm 2 mps 740 mmHg 98%
    05:00 +9°C° 0.5 mm 3 mps 740 mmHg 98%
    06:00 +10°C° 1 mm 3 mps 741 mmHg 97%
    07:00 +10°C° 1 mm 3 mps 741 mmHg 97%
    08:00 +10°C° 1 mm 4 mps 741 mmHg 96%
    09:00 +11°C° 0.7 mm 3 mps 741 mmHg 92%
    10:00 +12°C° 0.7 mm 3 mps 741 mmHg 89%
    11:00 +14°C° 0.7 mm 2 mps 741 mmHg 85%
    12:00 +15°C° 1.3 mm 2 mps 740 mmHg 84%
    13:00 +16°C° 1.3 mm 2 mps 740 mmHg 82%
    14:00 +16°C° 1.3 mm 2 mps 740 mmHg 80%
    15:00 +16°C° 0.7 mm 2 mps 740 mmHg 80%
    16:00 +16°C° 0.7 mm 2 mps 739 mmHg 81%
    17:00 +16°C° 0.7 mm 2 mps 739 mmHg 81%
    18:00 +15°C° 0.5 mm 2 mps 739 mmHg 83%
    19:00 +14°C° 0.5 mm 2 mps 739 mmHg 86%
    20:00 +13°C° 0.5 mm 2 mps 739 mmHg 88%
    21:00 +12°C° 0.1 mm 2 mps 739 mmHg 89%
    22:00 +12°C° 0.1 mm 2 mps 739 mmHg 90%
    23:00 +10°C° 0.1 mm 2 mps 739 mmHg 91%

    Day after tomorrow, 28 May, Thursday

    Time Temperature Precipitation Wind Pressure Humidity
    00:00 +10°C° 0 mm 2 mps 739 mmHg 92%
    01:00 +9°C° 0 mm 2 mps 739 mmHg 94%
    02:00 +8°C° 0 mm 2 mps 739 mmHg 95%
    03:00 +8°C° 0 mm 2 mps 739 mmHg 95%
    04:00 +8°C° 0 mm 2 mps 739 mmHg 96%
    05:00 +8°C° 0 mm 3 mps 738 mmHg 96%
    06:00 +9°C° 0.1 mm 3 mps 738 mmHg 94%
    07:00 +11°C° 0.1 mm 3 mps 738 mmHg 92%
    08:00 +12°C° 0.1 mm 4 mps 738 mmHg 90%
    09:00 +13°C° 0.5 mm 4 mps 738 mmHg 85%
    10:00 +14°C° 0.5 mm 4 mps 738 mmHg 81%
    11:00 +15°C° 0.5 mm 4 mps 737 mmHg 76%
    12:00 +15°C° 0.5 mm 5 mps 737 mmHg 74%
    13:00 +16°C° 0.5 mm 5 mps 737 mmHg 72%
    14:00 +16°C° 0.5 mm 5 mps 736 mmHg 70%
    15:00 +16°C° 0.2 mm 5 mps 736 mmHg 70%
    16:00 +16°C° 0.2 mm 5 mps 736 mmHg 71%
    17:00 +15°C° 0.2 mm 4 mps 736 mmHg 72%
    18:00 +14°C° 0.2 mm 4 mps 736 mmHg 78%
    19:00 +13°C° 0.2 mm 4 mps 736 mmHg 84%
    20:00 +11°C° 0.2 mm 3 mps 736 mmHg 90%
    21:00 +11°C° 0 mm 3 mps 736 mmHg 91%
    22:00 +10°C° 0 mm 3 mps 736 mmHg 92%
    23:00 +10°C° 0 mm 2 mps 736 mmHg 94%

    29 May, Friday

    Time Temperature Precipitation Wind Pressure Humidity
    00:00 +9°C° 0 mm 2 mps 736 mmHg 94%
    01:00 +9°C° 0 mm 2 mps 736 mmHg 94%
    02:00 +9°C° 0 mm 2 mps 736 mmHg 94%
    03:00 +9°C° 0 mm 3 mps 736 mmHg 94%
    04:00 +9°C° 0 mm 3 mps 736 mmHg 94%
    05:00 +9°C° 0 mm 3 mps 736 mmHg 94%
    06:00 +9°C° 0.2 mm 3 mps 736 mmHg 94%
    07:00 +9°C° 0.2 mm 3 mps 736 mmHg 95%
    08:00 +8°C° 0.2 mm 4 mps 736 mmHg 95%
    09:00 +10°C° 0.3 mm 4 mps 736 mmHg 95%
    10:00 +10°C° 0.3 mm 4 mps 736 mmHg 95%
    11:00 +10°C° 0.3 mm 4 mps 736 mmHg 95%
    12:00 +10°C° 0.3 mm 4 mps 736 mmHg 95%
    13:00 +10°C° 0.3 mm 4 mps 736 mmHg 94%
    14:00 +10°C° 0.3 mm 4 mps 735 mmHg 94%
    15:00 +11°C° 0.1 mm 4 mps 735 mmHg 91%
    16:00 +12°C° 0.1 mm 4 mps 735 mmHg 88%
    17:00 +13°C° 0.1 mm 4 mps 735 mmHg 85%
    18:00 +12°C° 0.2 mm 3 mps 735 mmHg 87%
    19:00 +11°C° 0.2 mm 3 mps 736 mmHg 90%
    20:00 +12°C° 0.2 mm 2 mps 736 mmHg 92%
    21:00 +10°C° 0.1 mm 2 mps 736 mmHg 93%
    22:00 +10°C° 0.1 mm 2 mps 736 mmHg 94%
    23:00 +9°C° 0.1 mm 2 mps 736 mmHg 94%

    30 May, Saturday

    Time Temperature Precipitation Wind Pressure Humidity
    00:00 +9°C° 0.1 mm 2 mps 736 mmHg 95%
    01:00 +8°C° 0.1 mm 2 mps 736 mmHg 96%
    02:00 +8°C° 0.1 mm 2 mps 736 mmHg 96%
    03:00 +8°C° 0.1 mm 3 mps 736 mmHg 96%
    04:00 +8°C° 0.1 mm 3 mps 736 mmHg 97%
    05:00 +8°C° 0.1 mm 3 mps 736 mmHg 97%
    06:00 +8°C° 0.1 mm 3 mps 736 mmHg 96%
    07:00 +8°C° 0.1 mm 3 mps 736 mmHg 96%
    08:00 +9°C° 0.1 mm 3 mps 736 mmHg 95%
    09:00 +9°C° 0.1 mm 3 mps 736 mmHg 94%
    10:00 +9°C° 0.1 mm 3 mps 736 mmHg 93%
    11:00 +10°C° 0.1 mm 4 mps 736 mmHg 92%
    12:00 +11°C° 0.1 mm 4 mps 736 mmHg 88%
    13:00 +12°C° 0.1 mm 4 mps 736 mmHg 84%
    14:00 +13°C° 0.1 mm 4 mps 735 mmHg 81%
    15:00 +13°C° 0.1 mm 4 mps 735 mmHg 79%
    16:00 +14°C° 0.1 mm 4 mps 735 mmHg 78%
    17:00 +15°C° 0.1 mm 4 mps 735 mmHg 76%
    18:00 +14°C° 0.1 mm 3 mps 735 mmHg 81%
    19:00 +13°C° 0.1 mm 3 mps 735 mmHg 85%
    20:00 +13°C° 0.1 mm 2 mps 735 mmHg 90%
    21:00 +12°C° 0 mm 2 mps 735 mmHg 90%
    22:00 +12°C° 0 mm 2 mps 736 mmHg 91%
    23:00 +10°C° 0 mm 2 mps 736 mmHg 92%

    31 May, Sunday

    Time Temperature Precipitation Wind Pressure Humidity
    00:00 +9°C° 0 mm 2 mps 736 mmHg 93%
    01:00 +9°C° 0 mm 2 mps 735 mmHg 94%
    02:00 +8°C° 0 mm 3 mps 735 mmHg 95%
    03:00 +8°C° 0 mm 3 mps 735 mmHg 95%
    04:00 +8°C° 0 mm 3 mps 735 mmHg 95%
    05:00 +7°C° 0 mm 3 mps 735 mmHg 95%
    06:00 +8°C° 0 mm 4 mps 735 mmHg 92%
    07:00 +10°C° 0 mm 4 mps 735 mmHg 89%
    08:00 +12°C° 0 mm 4 mps 735 mmHg 86%
    09:00 +13°C° 0 mm 4 mps 735 mmHg 82%
    10:00 +15°C° 0 mm 5 mps 735 mmHg 79%
    11:00 +16°C° 0 mm 5 mps 735 mmHg 75%
    12:00 +16°C° 0.6 mm 5 mps 735 mmHg 76%
    13:00 +17°C° 0.6 mm 5 mps 734 mmHg 77%
    14:00 +17°C° 0.6 mm 5 mps 734 mmHg 78%
    15:00 +17°C° 1.1 mm 5 mps 734 mmHg 81%
    16:00 +17°C° 1.1 mm 4 mps 734 mmHg 84%
    17:00 +17°C° 1.1 mm 3 mps 734 mmHg 87%
    18:00 +14°C° 0.3 mm 3 mps 734 mmHg 88%
    19:00 +14°C° 0.3 mm 2 mps 735 mmHg 90%
    20:00 +13°C° 0.3 mm 2 mps 735 mmHg 92%
    21:00 +12°C° 0 mm 2 mps 735 mmHg 92%
    22:00 +10°C° 0 mm 2 mps 735 mmHg 92%
    23:00 +10°C° 0 mm 2 mps 735 mmHg 92%
    Show more